Theta_e
295 296 296 296 296 297 298 300 299 299 299 300 301 302 302 302 303 303 303 305 305 308 307 308 308 310 310 306 308 306 307 307 304 305 307 308 309 307 312 315 316 315 314 316 316 317 315 313 313 315 309 309 312 312
295 296 296 296 296 297 298 299 299 299 299 300 301 301 301 301 302 303 302 302 304 305 305 305 306 306 307 308 306 303 305 307 305 304 304 304 306 304 306 308 312 317 311 310 311 311 306 311 311 310 308 310 310 310
295 295 296 296 296 296 298 299 299 299 300 300 300 301 301 302 302 302 303 303 304 299 299 300 304 305 306 305 306 305 303 305 307 303 303 303 305 302 303 306 308 307 309 314 311 310 308 309 310 310 309 308 308 307
294 295 296 296 296 296 297 300 300 299 300 300 300 301 301 302 302 302 302 303 304 300 304 301 303 303 304 305 305 306 305 304 302 301 303 304 302 300 303 302 303 303 304 305 307 305 305 307 308 309 309 308 308 306
294 295 296 296 296 296 297 300 300 300 301 301 301 301 301 303 302 302 304 304 304 304 305 302 301 303 305 304 305 306 303 302 301 303 303 302 300 300 298 299 300 301 302 303 303 302 304 306 306 307 308 306 304 303
294 295 295 295 296 297 297 299 301 301 301 302 302 302 302 302 301 302 304 304 302 304 305 303 299 302 306 305 305 305 304 302 301 301 303 302 302 302 304 301 300 300 301 300 304 305 305 305 305 307 305 304 304 301
294 295 295 296 296 297 297 299 301 302 301 301 302 302 302 302 301 301 304 302 303 305 304 304 303 307 308 308 307 306 304 303 301 303 304 304 304 305 307 305 301 301 301 302 304 304 307 306 305 302 303 302 301 299
295 295 296 297 297 297 298 299 300 301 301 301 302 302 302 302 301 301 303 303 304 303 302 303 305 308 307 310 310 305 306 304 302 304 302 302 302 302 304 301 301 303 305 304 305 304 305 305 302 302 301 300 299 298
295 296 296 298 297 297 299 299 300 301 301 301 301 302 303 302 303 304 304 304 303 303 304 304 306 308 306 307 307 306 305 305 304 305 305 305 307 305 302 301 302 305 307 308 307 306 303 302 302 301 300 298 297 296
295 296 296 298 298 298 299 299 301 301 302 302 302 302 302 301 302 302 302 302 301 301 302 302 300 307 306 303 303 307 306 305 303 304 304 305 303 301 301 301 302 303 307 307 306 303 302 302 301 300 299 297 296 295
294 295 296 298 299 298 298 299 301 302 302 302 301 301 301 301 301 300 302 303 303 303 302 303 300 304 305 309 306 305 303 303 302 302 304 306 307 305 309 304 305 303 306 302 300 299 299 299 299 298 297 297 295 294
293 294 295 298 299 300 299 300 301 302 301 300 300 300 300 301 301 301 302 303 303 303 300 301 301 301 305 303 304 306 303 304 307 304 308 310 309 309 305 301 301 301 300 300 299 298 298 297 296 295 296 296 294 292
293 293 296 297 298 300 300 300 301 301 300 300 300 300 300 300 300 302 303 304 304 302 302 301 299 303 300 300 301 304 306 305 305 310 310 309 309 306 302 301 300 299 298 298 297 298 297 295 295 295 295 294 292 291
294 295 297 298 299 300 300 300 301 301 301 302 303 302 302 303 303 304 304 307 306 307 307 305 303 302 298 301 298 303 301 303 309 309 312 308 308 305 303 301 299 298 297 297 296 296 296 294 294 295 294 292 291 290
296 296 297 300 300 300 299 300 301 301 301 302 302 302 303 303 304 301 302 302 305 305 305 302 303 304 299 303 301 303 308 308 307 311 308 306 304 302 300 299 298 297 296 296 296 295 295 294 294 294 294 291 290 289
297 298 300 300 301 300 300 301 301 300 301 301 301 301 301 304 304 304 306 307 305 304 305 304 304 304 305 304 308 309 310 310 309 308 304 302 303 299 299 299 298 297 296 296 296 296 296 293 293 293 293 292 289 289
297 298 299 299 300 300 301 300 301 300 300 301 299 300 301 302 303 306 305 307 303 305 308 307 306 307 305 307 309 309 309 307 305 302 302 300 299 299 299 299 299 298 298 297 296 295 295 293 292 292 292 292 290 289
298 298 299 300 301 300 300 300 300 301 301 300 298 297 300 303 306 307 304 304 303 304 306 307 306 309 309 311 309 306 307 304 303 302 301 299 298 299 299 297 298 297 297 296 295 294 294 293 292 292 291 291 290 289
297 298 299 300 300 300 299 299 298 299 299 298 296 296 298 299 300 302 301 300 302 303 303 305 307 307 309 308 307 308 305 303 301 300 299 298 299 299 299 298 297 297 296 295 294 293 292 292 292 291 291 290 290 288
298 298 298 299 300 300 299 299 298 299 299 297 298 302 299 301 304 304 301 301 301 301 304 304 305 306 308 307 307 305 306 302 298 298 297 297 298 298 298 298 296 296 295 294 294 293 292 291 291 290 290 289 289 288
299 298 298 297 300 300 300 300 299 296 296 297 299 301 303 304 304 304 306 300 302 303 305 304 305 306 307 307 306 305 304 299 298 298 297 297 297 297 297 296 296 296 295 295 294 293 292 291 291 290 289 289 288 287
298 297 299 299 299 299 299 299 300 300 302 301 300 301 302 302 302 307 302 302 305 301 305 304 304 305 306 307 306 306 306 303 299 297 298 298 296 294 294 295 296 295 295 295 294 293 292 291 290 290 289 288 287 286
299 299 299 299 301 300 300 300 302 303 304 304 303 304 302 301 300 301 302 306 304 301 299 299 299 300 302 306 303 302 306 303 298 297 298 298 298 297 296 296 296 295 294 294 295 294 292 292 291 290 289 288 287 286
299 300 300 301 301 301 301 304 303 304 304 305 305 306 307 306 304 307 308 304 301 298 296 296 297 299 303 306 305 299 302 304 299 298 298 297 295 296 297 297 296 296 296 295 295 294 294 293 291 290 289 288 287 286
300 296 302 299 301 303 303 305 305 306 305 303 304 303 305 304 307 308 306 300 298 297 294 294 295 296 300 303 303 301 298 301 299 296 297 297 296 295 296 295 296 296 296 295 294 294 293 293 292 290 289 288 287 286
302 301 302 303 302 303 304 306 306 305 304 306 307 307 307 306 306 304 299 295 294 294 293 293 293 294 297 298 299 301 302 299 299 296 296 297 297 296 295 294 294 295 296 296 295 294 293 293 292 291 290 289 288 287
300 300 300 299 301 304 305 305 304 307 307 308 307 305 305 308 304 296 294 292 291 291 290 291 292 293 294 295 297 301 298 297 298 298 298 297 298 298 298 296 295 297 296 296 296 295 294 293 293 292 291 290 289 288
300 302 305 302 304 303 305 305 306 306 305 303 303 300 300 298 293 291 292 290 289 289 290 291 293 294 295 296 298 300 294 296 297 297 297 297 297 298 298 298 298 298 297 296 296 296 295 294 293 293 292 291 290 289
300 300 300 302 304 304 304 304 303 302 299 300 301 298 294 290 288 288 288 288 288 289 290 291 292 290 294 299 303 304 295 295 296 297 296 294 293 295 297 298 298 297 297 297 296 296 296 295 294 293 292 292 291 290
300 298 300 302 303 303 302 301 300 298 293 292 291 292 290 287 287 286 286 287 288 288 289 290 290 289 289 290 297 301 296 296 296 296 294 292 293 295 296 296 296 296 297 296 295 294 294 294 293 292 291 290 290 290
301 303 304 303 302 301 299 297 296 295 293 291 290 290 289 288 288 286 286 286 287 287 288 289 289 289 289 289 288 291 296 296 297 295 295 295 295 295 296 296 296 296 296 296 295 294 293 291 290 290 289 288 288 288
300 303 304 302 301 299 298 298 299 296 296 296 295 293 292 288 285 282 285 285 286 286 287 287 287 287 288 288 288 288 288 292 297 296 293 294 293 293 294 295 295 295 295 294 293 292 291 290 288 287 286 285 285 285
302 302 301 301 299 300 298 299 300 297 295 295 295 288 285 285 283 281 284 284 285 286 286 287 287 287 287 287 287 287 288 291 292 294 293 292 291 291 292 293 293 293 293 292 291 290 288 286 284 284 283 283 282 282
Wind_Speed
19 22 24 25 26 27 27 26 21 20 19 20 18 15 15 14 12 11 5 11 6 2 3 3 5 4 4 4 2 2 2 4 3 4 2 1 2 1 2 2 5 5 6 3 3 3 7 4 2 5 5 2 3 4
18 22 23 25 28 27 25 24 21 18 18 18 16 14 14 14 14 13 4 11 11 1 3 4 9 8 3 2 2 3 3 1 2 4 1 3 2 2 1 2 3 3 4 4 7 5 4 3 3 4 4 5 4 3
19 21 22 23 27 25 26 23 22 18 17 16 14 13 13 12 12 12 8 11 5 3 4 3 3 6 1 10 7 3 2 2 2 2 3 2 4 2 1 3 2 1 1 2 1 2 5 6 5 5 5 5 5 5
18 22 23 22 24 23 25 22 21 18 15 14 12 12 13 13 11 11 7 8 3 0 1 4 6 4 3 3 3 4 5 5 4 3 3 2 2 2 2 2 2 4 1 4 4 5 6 6 5 6 4 5 6 5
17 21 22 22 23 21 22 19 20 18 15 13 11 12 12 13 13 12 5 5 4 2 2 4 10 6 11 4 6 9 9 4 3 3 3 1 2 2 1 1 3 4 5 4 5 6 4 6 5 4 6 6 5 4
18 23 24 24 22 22 22 20 20 18 15 13 11 12 13 13 14 4 0 5 16 1 2 4 4 5 8 17 17 8 4 4 3 3 2 1 2 2 1 2 5 4 3 4 4 1 6 9 7 3 3 3 1 4
20 22 22 21 20 18 20 20 18 18 15 14 13 12 13 14 9 2 1 8 12 3 2 3 3 2 2 3 3 3 6 3 3 2 1 2 1 1 1 3 5 4 4 5 6 3 4 0 2 3 1 1 5 5
20 21 22 21 18 17 19 17 18 19 16 14 13 14 12 7 5 2 6 3 4 2 2 2 2 1 6 2 2 2 2 2 3 2 1 1 1 1 4 7 7 9 9 7 6 5 4 3 2 3 3 2 4 5
20 21 22 21 17 17 17 17 19 17 16 14 14 6 4 5 4 5 4 3 4 2 1 1 2 2 3 3 2 2 2 2 1 1 1 2 2 4 6 5 6 4 4 6 5 3 1 3 2 3 3 4 4 5
21 21 22 20 17 16 16 17 18 18 13 9 6 3 2 5 5 5 3 3 3 2 2 1 1 0 2 2 2 1 1 2 1 2 2 2 3 6 9 10 8 4 3 6 6 3 1 1 2 3 3 2 3 3
20 21 22 19 17 15 16 17 18 15 6 4 4 1 5 6 4 2 1 2 1 1 1 1 1 1 1 1 2 1 2 2 0 2 2 2 2 3 6 6 2 5 3 1 2 3 5 5 3 3 4 1 3 6
22 21 21 18 17 14 14 14 14 8 5 3 3 3 3 3 1 1 1 0 1 1 2 2 3 3 2 1 2 0 2 1 1 3 1 2 0 6 3 5 7 6 6 6 6 6 6 6 6 5 5 1 7 9
21 21 20 18 15 13 12 11 10 8 7 3 1 1 1 1 2 1 2 1 2 1 2 2 1 2 2 3 2 1 1 1 0 2 2 1 2 3 2 5 7 7 9 7 6 6 6 7 10 9 5 9 10 11
20 19 20 18 16 10 6 6 7 5 3 2 2 4 1 2 2 2 2 2 2 2 2 1 2 1 1 2 2 3 3 1 2 2 2 1 1 1 4 4 7 5 6 6 6 8 7 8 7 9 10 12 12 10
19 19 17 7 8 6 3 4 5 3 3 2 2 3 2 2 2 3 4 2 2 0 2 2 2 1 2 2 1 1 2 4 4 1 2 3 3 5 5 5 6 5 5 4 7 6 6 10 9 9 6 12 15 14
14 13 2 7 7 4 4 2 0 2 2 2 2 3 2 3 4 3 1 1 1 2 2 1 2 1 2 2 2 3 2 3 1 1 2 3 5 4 5 5 5 6 6 7 11 10 8 12 9 10 10 8 17 16
9 5 5 8 5 2 3 1 2 2 2 3 3 2 2 3 3 2 2 1 1 1 1 1 0 2 1 1 2 2 2 1 1 1 2 4 6 6 5 5 6 7 8 10 11 12 11 13 14 12 10 14 13 16
12 11 7 6 1 1 2 3 2 2 3 3 3 4 2 3 3 3 2 1 1 1 1 0 1 1 2 2 1 2 2 1 2 2 3 4 4 6 8 6 8 10 12 12 13 13 11 12 11 10 13 13 11 16
14 8 5 3 4 2 1 1 1 2 3 3 3 3 3 3 3 2 1 1 1 1 2 1 1 1 0 1 1 2 1 1 2 2 3 5 9 10 11 13 13 12 14 13 14 11 13 13 12 14 14 13 13 15
13 11 6 0 6 2 1 1 1 2 3 3 3 3 2 3 1 2 2 1 1 1 1 1 2 2 1 2 2 2 1 2 3 3 3 2 4 11 10 10 10 14 15 15 14 13 13 13 14 15 15 15 14 15
9 5 6 6 2 1 1 1 2 3 3 2 3 2 2 0 0 1 1 1 2 2 2 1 2 3 5 2 4 4 2 5 4 3 4 3 3 10 11 10 12 14 12 10 9 10 12 11 11 13 14 14 15 14
4 9 5 4 2 3 1 3 2 3 2 3 3 1 2 1 1 1 3 3 2 3 3 4 6 5 4 4 3 5 8 9 9 9 11 15 3 3 5 12 12 6 9 11 12 12 11 10 11 13 15 14 16 17
4 3 2 2 2 3 3 4 2 2 2 2 2 2 2 1 1 1 2 2 2 3 6 6 11 12 8 8 8 1 10 15 7 9 14 11 11 14 16 12 13 14 8 7 12 15 14 11 11 12 12 15 15 15
2 2 2 2 2 2 2 3 3 3 2 2 2 2 0 0 2 1 2 2 2 4 7 10 13 7 6 7 5 3 2 12 14 12 13 15 8 10 16 13 12 11 13 14 13 13 12 12 11 12 13 15 15 14
1 3 2 2 3 2 2 2 3 2 2 1 1 1 1 2 1 1 2 2 2 4 6 11 9 5 4 5 6 11 6 9 11 5 10 12 12 14 13 12 11 11 14 18 15 15 14 14 12 12 12 13 14 14
2 3 4 2 2 2 2 2 2 2 2 1 2 2 2 1 1 2 2 3 3 3 6 6 6 7 6 5 6 6 13 10 8 7 8 16 22 20 12 6 5 9 16 15 18 17 16 14 14 13 12 11 12 14
2 3 3 2 1 1 2 0 2 1 1 2 2 3 2 1 2 2 1 2 3 10 15 15 12 10 8 14 15 15 15 2 6 5 12 16 22 23 26 20 13 20 20 18 18 19 18 16 15 14 13 10 9 10
3 2 1 2 1 1 1 1 1 2 2 2 1 3 1 2 1 2 2 11 15 17 17 15 13 13 15 15 14 10 5 8 13 15 14 10 11 14 17 19 17 17 21 20 17 16 16 16 16 15 13 12 11 9
3 1 1 2 1 1 2 1 1 1 1 1 1 2 2 2 2 3 6 15 15 14 11 13 15 18 11 5 6 4 5 10 4 6 6 3 1 5 12 15 15 17 18 19 18 15 14 14 14 14 12 11 11 10
3 2 2 1 0 1 0 1 1 2 2 3 3 2 2 1 2 9 11 13 13 13 13 12 12 14 12 11 5 4 9 4 5 3 4 5 9 11 14 16 19 20 20 22 22 20 17 16 15 13 12 11 12 13
1 1 2 2 1 1 2 2 3 3 2 2 2 3 2 2 2 5 11 13 13 14 13 13 12 14 14 14 10 6 1 1 5 1 6 9 15 15 15 17 20 21 23 23 23 23 21 18 16 16 15 14 13 12
1 2 2 2 1 1 1 1 1 2 2 1 1 2 2 2 1 4 10 13 10 10 13 14 13 13 12 10 9 7 9 11 9 2 11 16 17 17 17 18 19 21 21 22 22 21 18 17 15 14 13 12 10 9
2 2 1 2 1 2 1 1 1 1 2 1 1 2 1 2 2 2 7 9 9 9 11 11 9 9 9 8 8 8 7 3 5 9 14 19 22 22 21 21 21 21 22 22 20 18 16 15 16 15 13 12 11 9
Wind_Direction
337 345 342 341 342 344 340 347 342 343 344 342 349 358 2 4 360 351 332 8 2 350 299 356 9 16 357 25 73 298 38 6 41 66 97 141 108 262 86 148 158 159 158 176 163 199 260 163 112 174 209 225 234 240
339 340 339 342 343 339 342 345 343 342 344 341 348 355 360 1 5 3 331 347 346 261 278 303 282 274 228 115 93 16 152 67 149 95 91 106 77 49 129 201 350 168 184 183 179 211 237 225 202 270 172 219 243 231
337 336 337 337 342 338 344 345 344 345 344 343 348 353 356 355 354 359 342 357 352 21 320 3 6 355 294 225 224 121 302 166 64 180 139 125 85 119 134 253 317 322 134 211 98 235 221 250 265 245 210 227 258 256
333 334 333 335 339 337 341 350 343 341 342 341 346 348 348 347 351 350 339 337 352 93 351 292 345 333 298 273 243 199 132 81 93 49 76 103 115 148 201 239 210 209 3 187 259 291 283 266 235 244 273 277 274 306
331 335 341 336 335 338 341 347 347 341 342 336 344 340 346 341 339 342 34 35 359 337 325 294 314 359 346 203 147 135 112 88 54 51 57 66 57 77 343 304 248 195 196 159 230 245 217 259 303 300 287 290 301 294
339 337 338 336 336 335 338 345 345 339 341 351 347 338 335 338 340 348 128 23 2 223 359 339 301 333 45 99 84 67 65 66 72 94 91 69 147 96 248 249 259 233 240 185 240 282 238 262 277 277 283 318 46 77
337 333 331 335 339 334 334 342 346 343 334 336 343 344 336 330 337 47 351 305 339 158 13 323 356 32 39 72 51 47 32 54 81 83 96 131 117 112 237 244 256 310 276 275 268 311 320 202 287 349 114 83 84 80
332 331 334 337 339 336 334 342 342 340 334 326 329 328 333 354 355 37 12 73 35 52 46 347 291 243 359 99 83 15 77 53 25 114 39 99 47 126 255 260 286 282 283 273 275 197 221 269 88 89 66 51 34 11
334 335 335 338 340 335 342 342 338 333 333 323 321 352 11 25 356 15 55 50 61 58 345 3 330 334 342 34 74 59 58 83 12 93 224 141 193 232 233 258 279 295 314 334 305 294 37 49 69 44 58 34 21 350
332 331 336 336 341 336 343 344 336 335 338 351 3 28 26 337 329 350 22 11 16 358 36 313 82 320 117 30 40 93 33 128 156 232 140 199 259 262 258 243 247 263 348 34 344 278 295 315 31 27 35 39 21 349
324 330 330 331 339 336 337 338 339 340 350 17 9 11 312 343 356 23 23 30 355 340 181 271 188 317 7 72 112 201 149 148 18 243 154 246 254 268 329 360 150 199 166 63 97 78 56 59 55 16 342 14 6 357
315 322 324 328 332 333 336 335 341 346 355 357 325 317 338 16 352 335 6 243 229 259 187 183 236 205 336 49 94 119 91 126 241 140 228 247 46 19 15 52 66 79 85 63 63 66 63 65 39 3 327 357 51 3
311 314 319 321 323 322 322 320 328 323 322 309 311 325 12 346 8 311 9 110 276 233 217 177 36 159 2 49 59 84 173 185 77 229 244 156 124 27 99 96 64 59 71 68 52 40 82 62 29 11 20 65 26 10
312 312 315 321 324 317 297 301 326 325 308 310 323 325 229 240 241 210 249 316 350 274 160 85 57 80 62 67 126 131 218 118 245 236 239 125 114 182 90 80 86 71 70 72 46 37 80 41 23 41 77 50 23 17
308 310 315 333 347 359 324 304 311 300 320 303 305 278 259 336 323 236 240 250 250 143 89 79 30 51 1 96 227 115 210 223 220 273 126 225 198 123 113 100 99 87 84 65 44 37 82 36 34 41 84 51 35 31
310 317 320 344 350 353 327 340 316 304 280 289 257 302 345 307 335 353 190 249 143 132 128 125 130 135 197 159 203 217 241 218 133 175 199 152 110 122 120 112 118 106 93 71 49 42 71 46 36 31 36 57 43 34
299 251 286 321 345 35 95 9 316 298 297 299 286 278 259 278 255 242 253 0 144 104 66 133 206 63 99 232 237 224 311 134 270 128 114 123 147 140 123 118 127 114 89 79 58 53 59 45 44 30 30 33 43 41
242 255 272 332 271 171 21 8 344 311 269 265 278 275 259 232 264 283 248 224 96 121 126 238 280 296 305 317 307 280 78 24 104 117 117 112 117 124 131 117 111 107 106 85 76 64 57 47 37 26 24 28 35 31
232 240 255 278 207 149 133 317 49 287 273 286 270 249 242 258 258 272 133 99 51 57 94 306 289 239 293 244 291 337 57 106 135 88 88 120 138 139 135 120 110 109 112 95 79 67 62 58 50 41 30 30 37 34
212 224 221 144 172 139 164 250 231 258 275 271 294 268 241 266 299 93 101 63 58 59 44 238 245 303 252 255 228 236 307 131 121 94 67 45 141 135 147 144 131 123 118 107 92 81 73 60 54 53 45 41 43 40
169 173 183 188 158 174 312 202 247 222 267 273 281 309 298 203 83 195 168 88 52 18 333 289 312 291 306 272 232 227 242 168 170 161 157 150 171 141 138 133 134 135 136 133 109 92 78 69 67 65 55 51 54 55
120 156 132 160 157 156 261 237 254 302 258 274 303 222 284 274 247 195 120 62 59 351 347 338 337 342 339 295 278 234 219 156 131 123 128 135 127 131 144 153 137 132 134 147 143 128 108 94 88 80 74 68 64 60
109 87 106 149 195 175 274 177 244 210 248 259 330 309 270 283 246 179 79 90 79 19 344 335 327 316 274 307 344 338 190 157 139 154 158 167 170 169 160 159 154 144 134 137 148 144 131 113 96 92 89 80 69 61
121 162 175 200 212 214 208 221 215 245 235 241 221 264 150 82 156 55 79 72 33 10 0 355 350 341 342 23 9 357 99 177 139 153 174 154 146 169 175 171 168 160 161 145 139 138 149 142 109 100 95 88 80 72
253 257 201 254 188 235 229 219 231 233 248 248 284 340 349 50 141 33 70 44 353 7 353 346 351 354 330 332 357 350 24 184 157 151 183 185 143 139 154 166 165 168 164 152 150 141 137 142 136 112 104 100 95 86
268 225 190 263 179 198 297 301 348 331 326 299 20 340 14 87 96 62 47 6 340 341 346 340 334 325 329 349 322 339 335 336 199 137 167 179 168 161 163 160 148 184 186 182 163 155 152 149 146 141 127 119 112 105
282 279 235 225 189 216 294 320 237 271 344 9 6 7 319 193 102 62 360 47 327 320 316 309 298 286 288 302 310 328 333 258 203 170 160 174 180 182 179 172 189 198 187 191 187 178 168 163 158 156 153 150 138 124
255 281 273 288 50 64 331 279 52 29 21 337 357 36 51 21 10 333 331 333 330 323 318 323 323 312 293 286 288 309 355 140 137 131 141 159 190 199 200 204 209 196 194 196 191 190 188 180 175 170 168 161 154 147
257 268 112 330 211 105 56 10 106 86 328 317 52 94 105 74 1 326 313 335 344 335 336 343 348 346 346 301 270 255 177 148 144 153 153 169 175 194 202 204 191 181 184 185 186 185 182 189 193 192 188 183 172 163
259 164 121 129 83 207 316 345 106 73 60 88 103 100 94 137 119 19 8 357 356 352 348 352 352 3 357 352 336 161 192 280 302 235 167 195 207 182 172 170 167 165 164 161 156 153 156 150 146 143 145 154 167 167
188 147 94 84 151 139 114 85 80 89 83 69 53 98 134 155 144 16 12 6 3 7 4 3 6 13 10 11 11 359 290 234 18 107 297 168 161 155 155 161 161 160 160 161 159 158 153 143 135 129 125 124 130 132
131 159 155 148 155 111 93 129 144 114 123 117 122 125 142 74 3 338 3 10 7 2 1 1 2 358 3 3 7 353 307 286 316 300 172 162 164 164 162 159 159 159 158 157 156 152 150 140 132 128 123 118 116 112
139 109 120 122 132 162 156 266 136 99 77 114 127 118 76 142 206 278 356 6 356 349 346 351 358 10 12 17 26 27 18 325 242 189 184 169 159 155 157 160 162 163 158 151 146 144 137 132 126 124 122 118 112 103